Wind_Speed
3 7 7 7 6 10 8 4 10 18 18 21 21 22 19 17 20 22 22 23 24 22 23 27 27 22 22 24 21 21 20 20
1 7 5 4 7 8 9 6 6 12 11 15 18 20 21 20 18 22 26 23 23 27 28 30 26 28 23 22 21 21 20 20
4 5 4 3 5 5 9 10 13 13 10 9 6 15 23 24 22 23 24 22 22 23 25 26 27 24 22 18 17 18 20 21
4 2 4 5 4 2 3 6 7 8 9 10 10 12 15 14 14 13 16 18 19 18 18 20 21 21 19 18 19 20 22 22
5 5 8 7 8 6 4 4 4 5 7 7 7 8 13 15 15 17 19 20 18 15 16 20 21 16 12 17 23 24 24 28
8 9 7 6 6 7 7 6 5 5 7 7 7 8 9 9 9 10 13 14 13 14 15 15 16 17 15 14 14 18 21 24
9 10 8 5 5 6 7 7 5 6 8 10 10 8 9 11 13 14 13 14 14 15 16 17 18 18 17 18 20 20 21 23
9 13 11 8 5 4 6 5 5 5 7 8 8 8 9 12 13 13 11 12 15 16 20 22 21 20 19 21 23 22 21 25
7 11 12 10 9 6 6 5 5 5 7 10 11 12 12 12 12 10 11 13 15 17 20 23 24 23 21 23 24 24 23 27
8 7 10 11 10 11 12 12 10 8 9 10 13 14 14 15 14 13 16 19 22 24 25 24 25 25 25 26 28 27 28 30
9 8 9 11 13 16 16 14 14 15 14 15 16 18 20 19 19 22 23 22 28 34 32 32 33 27 27 30 30 25 32 30
18 12 12 14 16 14 16 17 18 19 22 24 25 26 26 27 25 25 28 29 34 41 43 42 36 26 25 24 23 29 32 33
16 15 15 15 16 20 18 20 23 25 29 25 27 37 32 27 21 35 30 35 41 29 33 24 29 23 23 23 29 31 34 35
17 16 17 19 20 21 20 18 18 23 25 28 28 28 22 18 27 26 34 29 27 22 18 20 17 22 27 29 32 34 34 34
21 17 14 16 19 19 18 18 21 23 24 26 23 18 21 21 20 17 27 25 20 22 21 21 24 26 30 32 36 35 37 38
26 23 19 19 21 25 27 28 27 27 27 25 22 22 20 21 20 21 22 24 25 25 24 29 31 30 33 36 38 38 40 41
28 27 20 25 24 26 30 29 29 30 30 25 23 22 23 23 24 26 28 29 31 31 31 34 36 36 38 39 39 41 42 43
37 35 34 29 26 31 33 36 37 35 26 22 23 25 24 26 27 29 30 34 34 33 37 40 40 41 41 39 40 42 44 46
36 37 33 29 29 33 32 29 24 27 29 27 27 27 27 27 30 32 34 35 34 38 40 43 44 43 42 42 43 45 47 49
Wind_Direction
248 228 224 245 300 309 346 231 206 206 203 206 214 221 226 228 213 209 209 216 225 229 232 227 222 221 203 198 198 212 217 226
230 204 211 281 312 313 13 36 176 208 195 196 201 205 216 211 217 222 226 230 230 231 227 221 199 190 193 204 213 221 228 234
26 199 202 227 295 344 54 62 94 106 122 122 165 212 215 214 220 223 230 224 224 216 206 187 188 195 208 217 228 233 236 238
4 143 179 214 214 178 102 90 85 96 110 117 116 123 129 138 159 173 173 178 172 174 180 193 204 215 227 234 236 235 238 242
232 259 219 211 197 197 179 146 118 101 107 129 146 151 146 158 161 174 179 189 180 162 183 203 216 215 224 238 245 242 244 254
230 239 241 215 202 197 198 181 182 172 173 173 168 161 150 156 171 189 201 202 192 194 203 210 207 218 221 223 238 242 250 253
242 238 256 254 239 214 225 226 218 213 200 208 200 195 199 193 195 199 202 204 206 208 217 227 233 231 241 250 248 250 261 267
231 211 225 259 267 218 220 233 246 265 275 268 261 244 233 223 217 216 222 225 224 224 231 232 230 237 242 247 249 252 261 271
234 227 217 237 258 241 246 237 270 289 296 291 286 276 268 250 234 232 235 242 244 240 241 232 235 230 239 247 247 251 265 269
216 220 232 230 242 253 258 265 259 264 263 274 271 265 261 249 242 246 254 248 240 247 244 243 235 235 243 260 252 259 267 271
219 221 251 255 246 244 255 268 276 271 273 268 263 260 257 250 240 240 244 256 259 251 248 247 244 246 246 253 254 268 272 276
247 234 237 248 255 264 256 255 261 268 265 265 269 265 264 264 264 251 252 254 259 264 253 256 228 247 257 267 273 271 274 278
232 248 251 256 263 262 261 255 254 264 268 273 275 277 272 252 276 260 258 264 263 279 252 234 235 257 279 273 271 273 275 278
225 240 263 264 270 268 261 266 265 269 278 291 287 280 297 275 291 278 252 261 280 303 298 294 284 281 276 276 276 278 278 284
258 256 244 255 259 255 248 264 271 275 280 285 283 293 294 300 309 281 257 264 286 283 288 283 276 277 275 277 279 283 285 286
254 257 259 260 258 257 259 265 275 282 285 282 281 281 286 290 296 290 287 287 283 284 284 282 279 285 283 281 283 285 285 285
248 245 257 265 261 265 265 263 270 283 282 278 280 283 285 286 290 292 288 286 285 286 289 287 287 287 284 283 285 287 287 289
254 260 268 271 263 276 281 275 271 274 268 274 274 277 284 290 288 286 282 281 283 286 286 287 288 286 285 286 288 289 288 287
265 268 272 269 268 264 267 266 263 266 272 274 275 279 283 284 283 283 280 279 282 284 284 285 283 282 283 284 286 287 289 292
Height
5722 5723 5722 5720 5719 5717 5715 5715 5715 5716 5719 5723 5726 5727 5729 5731 5733 5738 5742 5746 5748 5749 5751 5753 5755 5757 5760 5762 5765 5767 5771 5774
5722 5722 5721 5718 5717 5715 5712 5712 5714 5715 5715 5718 5722 5727 5730 5731 5733 5737 5739 5739 5739 5743 5745 5749 5750 5753 5756 5761 5762 5764 5767 5770
5723 5723 5721 5719 5717 5716 5715 5715 5715 5715 5717 5718 5719 5721 5723 5725 5727 5730 5733 5735 5737 5739 5741 5744 5749 5753 5756 5757 5759 5763 5764 5766
5723 5724 5723 5722 5720 5719 5718 5716 5717 5716 5716 5718 5720 5722 5721 5722 5725 5728 5731 5732 5734 5738 5740 5745 5748 5752 5752 5755 5758 5760 5761 5763
5724 5724 5723 5722 5722 5721 5720 5719 5718 5717 5716 5717 5719 5720 5719 5723 5725 5729 5730 5733 5733 5735 5740 5742 5746 5749 5750 5751 5753 5755 5757 5757
5723 5723 5723 5723 5723 5723 5723 5722 5720 5719 5719 5721 5721 5720 5720 5723 5726 5730 5732 5733 5732 5736 5740 5744 5746 5748 5748 5749 5750 5751 5751 5752
5721 5721 5723 5724 5723 5724 5724 5723 5722 5722 5722 5724 5724 5724 5725 5726 5728 5730 5731 5731 5733 5735 5738 5740 5743 5742 5744 5744 5745 5745 5746 5745
5719 5719 5720 5721 5722 5722 5723 5724 5724 5724 5724 5725 5726 5726 5725 5725 5726 5726 5728 5729 5731 5733 5735 5736 5737 5738 5739 5739 5740 5740 5740 5738
5717 5718 5718 5720 5720 5720 5722 5722 5723 5723 5723 5723 5723 5723 5722 5723 5723 5724 5726 5727 5728 5729 5730 5730 5731 5733 5735 5733 5734 5733 5732 5731
5716 5715 5716 5717 5718 5718 5718 5719 5719 5720 5720 5721 5720 5719 5721 5722 5722 5724 5724 5726 5725 5725 5726 5727 5727 5726 5726 5725 5726 5724 5725 5723
5713 5713 5713 5713 5714 5714 5715 5716 5715 5714 5715 5714 5714 5713 5714 5715 5717 5719 5719 5719 5720 5718 5718 5715 5718 5720 5721 5720 5718 5717 5717 5713
5710 5710 5710 5710 5709 5710 5711 5711 5712 5711 5710 5709 5708 5708 5709 5709 5711 5713 5713 5714 5714 5710 5705 5709 5707 5712 5711 5710 5710 5709 5706 5702
5705 5706 5706 5706 5706 5705 5706 5705 5705 5704 5702 5703 5703 5700 5700 5702 5705 5703 5706 5706 5705 5703 5696 5701 5702 5703 5702 5701 5702 5700 5697 5694
5698 5701 5701 5701 5701 5700 5701 5700 5700 5699 5696 5695 5697 5695 5693 5695 5693 5689 5692 5696 5694 5692 5693 5691 5692 5693 5694 5693 5691 5690 5687 5685
5691 5693 5696 5696 5695 5695 5695 5696 5694 5692 5692 5691 5690 5688 5689 5687 5686 5683 5686 5689 5686 5687 5686 5686 5687 5686 5685 5683 5681 5678 5677 5674
5687 5687 5687 5690 5689 5689 5688 5688 5687 5686 5686 5685 5684 5683 5682 5682 5682 5682 5682 5681 5680 5681 5679 5679 5679 5676 5675 5673 5670 5668 5666 5663
5679 5680 5681 5683 5682 5682 5681 5680 5679 5678 5678 5677 5677 5677 5677 5676 5675 5675 5675 5675 5674 5672 5670 5671 5670 5666 5665 5663 5660 5657 5654 5650
5671 5673 5674 5675 5674 5673 5672 5672 5672 5672 5671 5670 5670 5670 5668 5667 5666 5666 5667 5667 5665 5663 5662 5661 5658 5655 5653 5650 5647 5643 5640 5637
5662 5664 5665 5665 5666 5665 5664 5664 5663 5662 5661 5661 5661 5661 5660 5660 5659 5658 5657 5656 5654 5653 5651 5649 5646 5643 5641 5638 5634 5631 5628 5624